Catania, Italy

5:28 PM CEST on April 25, 2017 (GMT +0200)
Catania

Weather History for LICC - January, 2014

Change the Weather History Date:

Wednesday, January 15, 2014

  Actual Average Record
Temperature  
Mean Temperature 51 °F -  
Max Temperature 60 °F 61 °F 93 °F (1999)
Min Temperature 41 °F 42 °F 34 °F (2015)
Degree Days  
Heating Degree Days 14    
Growing Degree Days 1 (Base 50)    
Moisture  
Dew Point 45 °F    
Average Humidity 80    
Maximum Humidity 94    
Minimum Humidity 37    
Precipitation  
Precipitation 0.00 in 0.08 in - ()
Sea Level Pressure  
Sea Level Pressure 29.89 in    
Wind  
Wind Speed 6 mph ()    
Max Wind Speed 10 mph    
Max Gust Speed -    
Visibility 5.4 miles    
Events Rain    
Averages and records for this station are not official NWS values.
T = Trace of Precipitation, MM = Missing Value Source: Averaged Metar Reports

Daily Weather History Graph

Daily Weather History Graph

Search for Another Location

Airport or City:

Trip Planner

Search our weather history database for the weather conditions in past years. The results will help you decide how hot, cold, wet, or windy it might be!

Date:

Astronomy

Jan. 15, 2014 Rise Set
Actual Time 7:13 AM CET 5:05 PM CET
Civil Twilight 6:44 AM CET 5:33 PM CET
Nautical Twilight 6:12 AM CET 6:06 PM CET
Astronomical Twilight 5:41 AM CET 6:37 PM CET
Moon 4:46 PM CET (1/15) 6:18 AM CET (1/15)
Length of Visible Light 10h 49m
Length of Day
9h 52m
Full, 100% of the Moon is Illuminated
Jan 15
Full
Jan 16
Full
Jan 24
Last Quarter
Jan 30
New
Feb 6
First Quarter

Hourly Weather History & Observations

Time (CET) Temp. Windchill Dew Point Humidity Pressure Visibility Wind Dir Wind Speed Gust Speed Precip Events Conditions
12:20 AM 50.0 °F - 48.2 °F 94% 29.89 in 4.3 mi SSW 8.1 mph - N/A Rain Light Rain
12:50 AM 50.0 °F - 48.2 °F 94% 29.89 in 4.3 mi SW 6.9 mph - N/A   Light Drizzle
1:00 AM 50 °F - 48 °F 91% 29.89 in 3 mi SW 8.1 mph - - Rain Rain
1:20 AM 50.0 °F - 48.2 °F 94% 29.86 in 4.3 mi WSW 6.9 mph - N/A   Light Drizzle
1:50 AM 50.0 °F - 48.2 °F 94% 29.86 in 4.3 mi West 5.8 mph - N/A   Light Drizzle
2:20 AM 48.2 °F - 46.4 °F 93% 29.86 in 4.3 mi WSW 4.6 mph - N/A   Light Drizzle
2:50 AM 48.2 °F - 46.4 °F 93% 29.89 in 4.3 mi WSW 5.8 mph - N/A   Light Drizzle
3:20 AM 48.2 °F - 46.4 °F 93% 29.86 in 4.3 mi West 4.6 mph - N/A   Mostly Cloudy
3:50 AM 48.2 °F - 46.4 °F 93% 29.86 in 4.3 mi West 4.6 mph - N/A   Mostly Cloudy
4:00 AM 49 °F - 47 °F 89% 29.86 in 3 mi West 3.5 mph - -   Mist
4:20 AM 48.2 °F - 46.4 °F 93% 29.86 in 4.3 mi West 4.6 mph - N/A   Mostly Cloudy
4:50 AM 48.2 °F - 44.6 °F 87% 29.83 in 5.0 mi West 5.8 mph - N/A   Mostly Cloudy
5:20 AM 46.4 °F 42.9 °F 44.6 °F 93% 29.83 in 5.0 mi SW 6.9 mph - N/A   Mostly Cloudy
5:50 AM 46.4 °F 44.3 °F 44.6 °F 93% 29.86 in 5.0 mi West 4.6 mph - N/A   Mostly Cloudy
6:20 AM 46.4 °F 43.5 °F 44.6 °F 93% 29.86 in 3.7 mi WSW 5.8 mph - N/A   Mostly Cloudy
6:50 AM 46.4 °F 42.9 °F 44.6 °F 93% 29.86 in 3.7 mi West 6.9 mph - N/A   Light Drizzle
7:00 AM 46 °F - 45 °F 93% 29.87 in 3 mi WSW 5.8 mph - -   Mist
7:20 AM 46.4 °F 43.5 °F 44.6 °F 93% 29.86 in 4.3 mi West 5.8 mph - N/A   Mostly Cloudy
7:50 AM 46.4 °F 42.9 °F 44.6 °F 93% 29.86 in 5.0 mi West 6.9 mph - N/A   Mostly Cloudy
8:20 AM 48.2 °F - 44.6 °F 87% 29.89 in 5.6 mi West 8.1 mph - N/A   Mostly Cloudy
8:50 AM 50.0 °F - 46.4 °F 87% 29.89 in 5.6 mi West 6.9 mph - N/A   Mostly Cloudy
9:20 AM 51.8 °F - 46.4 °F 82% 29.89 in 6.2 mi West 6.9 mph - N/A   Mostly Cloudy
9:50 AM 51.8 °F - 46.4 °F 82% 29.89 in 6.2 mi West 6.9 mph - N/A   Mostly Cloudy
10:00 AM 53 °F - 47 °F 72% 29.90 in 6 mi West 6.9 mph - -   Partly Cloudy
10:20 AM 51.8 °F - 46.4 °F 82% 29.89 in 6.2 mi WSW 9.2 mph - N/A   Mostly Cloudy
10:50 AM 53.6 °F - 46.4 °F 77% 29.89 in 6.2 mi West 9.2 mph - N/A   Mostly Cloudy
11:20 AM 55.4 °F - 44.6 °F 67% 29.89 in 6.2 mi West 9.2 mph - N/A   Mostly Cloudy
11:50 AM 55.4 °F - 46.4 °F 72% 29.86 in 6.2 mi West 10.4 mph - N/A   Mostly Cloudy
12:20 PM 55.4 °F - 46.4 °F 72% 29.86 in 6.2 mi WSW 6.9 mph - N/A   Mostly Cloudy
12:50 PM 57.2 °F - 46.4 °F 67% 29.86 in 6.2 mi WSW 9.2 mph - N/A   Mostly Cloudy
1:00 PM 57 °F - 47 °F 62% 29.87 in 6 mi WSW 6.9 mph - -   Scattered Clouds
1:20 PM 57.2 °F - 46.4 °F 67% 29.86 in 6.2 mi West 5.8 mph - N/A   Mostly Cloudy
1:50 PM 59.0 °F - 44.6 °F 59% 29.86 in 6.2 mi West 6.9 mph - N/A   Mostly Cloudy
2:20 PM 59.0 °F - 44.6 °F 59% 29.86 in 6.2 mi WSW 6.9 mph - N/A   Mostly Cloudy
2:50 PM 60.8 °F - 42.8 °F 52% 29.86 in 6.2 mi WSW 5.8 mph - N/A   Scattered Clouds
3:20 PM 60.8 °F - 41.0 °F 48% 29.86 in 6.2 mi West 8.1 mph - N/A   Scattered Clouds
3:50 PM 59.0 °F - 39.2 °F 48% 29.86 in 6.2 mi WSW 6.9 mph - N/A   Scattered Clouds
4:00 PM 60 °F - 40 °F 37% 29.88 in 6 mi WSW 5.8 mph - -   Scattered Clouds
4:20 PM 59.0 °F - 41.0 °F 51% 29.86 in 6.2 mi WSW 3.5 mph - N/A   Scattered Clouds
4:50 PM 57.2 °F - 46.4 °F 67% 29.89 in 6.2 mi NE 6.9 mph - N/A   Scattered Clouds
5:20 PM 55.4 °F - 46.4 °F 72% 29.89 in 6.2 mi NE 6.9 mph - N/A   Scattered Clouds
5:50 PM 55.4 °F - 46.4 °F 72% 29.89 in 6.2 mi NNE 4.6 mph - N/A   Scattered Clouds
6:20 PM 53.6 °F - 46.4 °F 77% 29.92 in 6.2 mi Calm Calm - N/A   Scattered Clouds
6:50 PM 53.6 °F - 46.4 °F 77% 29.92 in 6.2 mi Variable 2.3 mph - N/A   Scattered Clouds
7:00 PM 52 °F - 45 °F 71% 29.93 in 6 mi ESE 2.3 mph - -   Partly Cloudy
7:20 PM 48.2 °F - 42.8 °F 82% 29.92 in 6.2 mi West 4.6 mph - N/A   Scattered Clouds
7:50 PM 48.2 °F - 42.8 °F 82% 29.92 in 6.2 mi West 6.9 mph - N/A   Scattered Clouds
8:20 PM 46.4 °F 43.5 °F 42.8 °F 87% 29.95 in 6.2 mi West 5.8 mph - N/A   Scattered Clouds
8:50 PM 46.4 °F 44.3 °F 42.8 °F 87% 29.95 in 6.2 mi West 4.6 mph - N/A   Scattered Clouds
9:20 PM 44.6 °F 42.2 °F 41.0 °F 87% 29.95 in 6.2 mi SW 4.6 mph - N/A   Scattered Clouds
9:50 PM 44.6 °F 40.7 °F 41.0 °F 87% 29.95 in - WSW 6.9 mph - N/A   Clear
10:00 PM 44 °F - 40 °F 79% 29.96 in 6 mi WSW 8.1 mph - -  
10:20 PM 44.6 °F 40.2 °F 39.2 °F 81% 29.95 in - WSW 8.1 mph - N/A   Clear
10:50 PM 42.8 °F 38.6 °F 39.2 °F 87% 29.95 in - WSW 6.9 mph - N/A   Clear
11:20 PM 42.8 °F 40.1 °F 39.2 °F 87% 29.95 in - West 4.6 mph - N/A   Clear
11:50 PM 41.0 °F 37.1 °F 37.4 °F 87% 29.95 in - SW 5.8 mph - N/A   Clear